Regional Weather Roundup
Issued by NWS

Home | Current Version | Previous Version | Graphics & Text | Print | Product List | Glossary On
Versions: 1 2 3 4 5 6 7 8 9 10 11 12 13 14 15 16 17 18 19 20 21 22 23 24 25 26 27 28 29 30 31 32 33 34 35 36 37 38 39 40 41 42 43 44 45 46 47 48 49
000
ASUS43 KDMX 190607
RWRIA

WEATHER ROUNDUP FOR IOWA
NATIONAL WEATHER SERVICE DES MOINES IA
100 AM CDT FRI SEP 19 2014

NOTE: "FAIR" INDICATES FEW OR NO CLOUDS BELOW 12,000 FEET WITH NO
SIGNIFICANT WEATHER AND/OR OBSTRUCTIONS TO VISIBILITY.

* - THESE STATIONS ARE NOT NWS STATIONS...THUS NOT UNDER NWS
QUALITY CONTROL.  THEY ALSO DO NOT REPORT WEATHER SUCH
AS PRECIPITATION OR FOG.

IAZ001>003-012>014-020>022-031>034-043>046-190700-
   NORTHWEST IOWA

CITY           SKY/WX    TMP DP  RH WIND       PRES   REMARKS
CARROLL *      PTCLDY    57  55  94 S7        30.01S
CHEROKEE *     PTCLDY    58  57  96 S7        29.98S
DENISON *      PTCLDY    59  57  94 S12G20    29.97S
LE MARS *        N/A     59  55  88 S13       29.95S
ORANGE CITY *  CLEAR     61  54  77 S9        29.95S
SHELDON *      CLEAR     57  55  94 S10       29.95R
SIOUX CITY     CLEAR     60  57  89 SE9       29.95S
6HR MIN TEMP:  60; 6HR MAX TEMP:  73;

SPENCER        PTCLDY    59  54  83 S15       29.97F
6HR MIN TEMP:  59; 6HR MAX TEMP:  67;

STORM LAKE *   CLEAR     57  57 100 S15       29.98F
$$

IAZ055>058-069>071-079>083-090>094-190700-
   SOUTHWEST IOWA

CITY           SKY/WX    TMP DP  RH WIND       PRES   REMARKS
ATLANTIC *     CLOUDY    61  57  88 S7        30.01S
AUDUBON *      CLEAR     57  52  82 S8        30.02S
CLARINDA *     MOCLDY    59  57  94 VRB3      30.03S
COUNCIL BLFS * CLEAR     59  59 100 S8        29.99R FOG
CRESTON *      CLEAR     57  57 100 SE8       30.04R
HARLAN  *      CLEAR     59  59 100 S9        30.04S
LAMONI         CLEAR     59  55  87 SE7       30.04F
6HR MIN TEMP:  59; 6HR MAX TEMP:  65;

SHENANDOAH *     N/A     59  59 100 SE5       30.02R
$$

IAZ047>049-059>061-072>074-084-190700-
   CENTRAL IOWA

CITY           SKY/WX    TMP DP  RH WIND       PRES   REMARKS
AMES           CLEAR     53  52  96 SE7       30.04R
6HR MIN TEMP:  51; 6HR MAX TEMP:  65;

ANKENY *       CLEAR     54  54 100 CALM      30.04S
CHARITON *     CLEAR     55  55 100 SE6       30.05S
DES MOINES     CLEAR     60  55  83 SE8       30.04S
6HR MIN TEMP:  60; 6HR MAX TEMP:  69;

GRINNELL*      CLEAR     55  52  88 SE8       30.07S
KNOXVILLE *    CLEAR     55  54  94 SE6       30.04S
MARSHALLTOWN   CLEAR     56  52  86 SE7       30.05S
6HR MIN TEMP:  53; 6HR MAX TEMP:  67;

PELLA *        CLEAR     56  53  90 SE6       30.07S
PERRY *          N/A     55  55  97 S6        30.02F
$$

IAZ004>006-015-016-023>025-035-036-190700-
   NORTH CENTRAL IOWA

CITY           SKY/WX    TMP DP  RH WIND       PRES   REMARKS
ALGONA *       CLEAR     59  54  82 S12G17    30.01R
CLARION *        N/A     55  54  94 SE8       30.02F
ESTHERVILLE    CLEAR     56  52  86 S12       29.97F
6HR MIN TEMP:  56; 6HR MAX TEMP:  66;

FORT DODGE *   PTCLDY    61  54  77 S7        30.02F
MASON CITY     CLEAR     54  52  93 S6        30.04F
6HR MIN TEMP:  54; 6HR MAX TEMP:  66;

FOREST CITY *  CLEAR     54  54 100 SE7       30.02S
IOWA FALLS *     N/A     54  52  94 SE7       30.06R
$$

IAZ007>011-017>019-026>030-037>042-050>054-066-190700-
   NORTHEAST IOWA

CITY           SKY/WX    TMP DP  RH WIND       PRES   REMARKS
CEDAR RAPIDS   CLEAR     56  51  84 SE7       30.08F
6HR MIN TEMP:  53; 6HR MAX TEMP:  66;

CHARLES CITY * CLEAR     55  52  88 SE9       30.06S
CLINTON *      CLEAR     54  50  87 E7        30.15S
DECORAH *      CLEAR     54  52  94 SE8       30.07R
DUBUQUE        CLEAR     54  53  97 SE10      30.12S
6HR MIN TEMP:  54; 6HR MAX TEMP:  63;

MONTICELLO *   CLEAR     57  54  88 SE9G15    30.10S
OELWEIN *      CLEAR     55  52  88 SE10      30.08S
WATERLOO       CLEAR     58  51  78 SE12      30.06R
6HR MIN TEMP:  56; 6HR MAX TEMP:  68;

$$

IAZ064-065-067-068-078-190700-
   EAST CENTRAL IOWA

CITY           SKY/WX    TMP DP  RH WIND       PRES   REMARKS
DAVENPORT      CLEAR     56  50  80 E8        30.13S
6HR MIN TEMP:  54; 6HR MAX TEMP:  65;

IOWA CITY      CLEAR     53  51  93 SE5       30.10F
6HR MIN TEMP:  53; 6HR MAX TEMP:  69;

MT. PLEASANT * CLEAR     54  49  84 SE6       30.09F
MUSCATINE *    CLEAR     54  50  87 CALM      30.11S
QUAD CITIES    CLEAR     54  49  83 E7        30.12S
6HR MIN TEMP:  54; 6HR MAX TEMP:  64;

$$

IAZ062-063-075>077-085>089-095>099-190700-
   SOUTHEAST IOWA

CITY           SKY/WX    TMP DP  RH WIND       PRES   REMARKS
BURLINGTON     CLEAR     58  49  72 SE3       30.09S
6HR MIN TEMP:  57; 6HR MAX TEMP:  69;

FAIRFIELD *    CLEAR     54  50  87 SE7       30.08F
FORT MADISON * CLEAR     61  50  67 SE6       30.10S
KEOKUK *       CLEAR     57  52  82 E6        30.08F
OSKALOOSA *      N/A     55  53  93 SE7       30.07S
CENTERVILLE *  CLEAR     54  54 100 SE6       30.07F
OTTUMWA        CLEAR     54  51  90 SE7       30.06F
6HR MIN TEMP:  53; 6HR MAX TEMP:  67;

WASHINGTON *   CLEAR     52  52 100 SE7       30.09F
$$

ABBREVIATIONS USED IN REMARKS
   TC - TEMPERATURES IN CELSIUS
  WCI - WIND CHILL INDEX
   HX - HEAT INDEX
  VSB - VISIBILITY
$$




USA.gov is the U.S. government's official web portal to all federal, state and local government web resources and services.